Temp
13 13 13 13 13 13 13 13 13 13 13 12 12 12 12 12 12 12 12 12 11 11 11 10 10 10 10 9 9 10 10 10 10 10 10 10 10 10 9 9 9 8 8 8 8 7 7 7 6 6 6 6 6 5 5 5 5 5 5 5 5 5 5 5 5 6 6 6 6 6 6 7 7 7 7 8 8 8 9 9 9 10 11 11 12
13 13 13 13 13 13 13 13 13 12 12 12 12 12 12 12 12 12 11 11 11 11 10 10 9 9 9 9 9 9 10 10 10 10 10 10 10 9 9 9 8 8 8 7 7 7 7 6 6 6 6 5 5 5 5 5 4 4 4 4 4 5 5 5 5 5 6 6 6 6 7 7 7 7 8 8 8 8 8 9 9 9 10 10 11
13 13 13 13 13 13 13 12 12 12 12 12 12 12 12 12 11 11 11 11 11 10 10 10 9 9 9 9 9 9 9 9 10 10 10 9 9 9 9 8 8 8 7 7 7 7 7 6 6 6 5 5 5 4 4 4 3 3 4 4 4 4 5 5 5 5 5 6 6 6 7 7 7 7 8 8 8 8 8 8 8 8 9 9 10
13 13 13 13 13 12 12 12 12 12 12 12 12 11 11 11 11 11 11 10 10 10 10 9 9 9 9 8 8 9 9 9 9 9 9 9 9 9 8 8 8 7 7 7 7 7 6 6 6 5 5 4 4 4 3 3 3 3 4 4 4 4 4 4 4 5 5 6 6 6 7 7 7 7 7 7 7 7 7 7 7 8 8 9 9
13 13 13 12 12 12 12 12 12 12 12 12 12 11 11 11 11 11 11 10 10 9 9 9 9 8 8 8 8 8 9 9 9 9 9 9 9 9 8 8 8 7 7 7 7 6 6 6 5 5 4 4 4 3 4 4 4 4 4 4 4 4 4 4 4 5 5 6 6 6 6 6 6 6 6 7 7 7 7 7 7 7 7 7 7
13 13 12 12 12 12 12 12 12 12 12 12 11 11 11 11 11 11 10 10 9 9 9 9 8 8 7 7 8 8 8 9 9 9 9 9 9 8 8 8 7 7 7 7 7 6 6 6 5 5 4 4 4 4 4 4 4 4 4 4 4 4 4 4 4 5 5 5 5 5 5 5 5 6 6 6 6 6 6 6 7 7 6 7 7
13 12 12 12 12 12 11 11 11 11 12 11 11 11 11 11 11 10 10 10 9 9 8 8 8 7 7 7 7 8 8 9 9 9 9 9 8 8 8 8 7 7 7 7 6 6 6 6 5 5 5 4 4 4 4 4 4 4 4 4 4 4 4 4 4 4 4 5 4 5 5 5 5 5 5 5 5 6 6 6 6 6 6 6 6
12 12 12 12 11 11 11 11 11 11 11 11 11 11 11 11 11 10 10 10 9 8 8 7 7 7 7 7 7 8 8 9 9 9 9 8 8 8 8 8 7 7 7 7 6 6 6 6 5 5 5 5 5 5 5 4 4 5 5 5 5 5 4 4 4 4 4 4 4 4 4 4 4 4 4 4 5 5 5 5 6 6 6 6 6
12 12 12 11 11 11 11 11 11 11 11 11 11 11 11 11 11 10 10 9 9 8 8 7 7 7 7 7 8 8 8 8 8 9 9 8 8 8 8 8 7 7 7 7 6 6 6 5 5 5 5 5 5 5 5 5 5 5 5 5 5 5 4 4 4 4 4 4 4 4 4 4 4 4 4 4 4 4 4 5 5 5 5 5 5
12 12 11 11 11 11 11 11 11 11 11 11 11 11 11 10 10 10 10 9 9 8 8 7 7 7 7 7 7 8 8 8 8 9 9 9 9 8 8 8 8 7 7 7 6 6 6 5 6 6 6 6 6 6 6 6 5 5 5 5 5 5 4 4 4 4 3 3 3 3 3 3 3 3 3 3 3 4 4 4 4 4 4 5 5
12 11 11 11 11 11 11 11 11 11 11 11 10 10 10 10 10 10 9 9 9 8 8 7 7 7 7 7 7 8 8 8 8 9 9 9 9 9 9 8 8 8 8 7 7 6 6 6 6 6 6 6 6 6 6 6 6 6 5 5 5 5 5 4 4 4 3 3 3 3 3 3 3 3 3 3 3 3 3 3 3 4 4 5 5
11 11 11 11 11 11 11 11 11 11 10 10 10 10 10 10 10 9 9 9 8 8 7 7 7 7 7 7 7 7 8 8 9 9 9 9 9 9 9 8 8 8 8 7 7 7 6 6 6 6 6 6 6 7 7 7 7 7 6 6 6 6 5 5 5 4 4 4 3 3 3 3 3 3 3 3 3 2 3 3 3 4 4 4 5
11 11 11 11 11 11 11 11 11 10 10 10 10 10 9 9 9 9 9 9 8 8 7 7 6 6 7 7 7 7 8 8 9 9 9 9 9 9 9 9 8 8 8 7 7 7 7 6 6 7 7 7 7 7 7 7 7 7 7 7 6 6 6 6 6 5 5 4 4 4 3 3 3 3 3 3 2 2 3 3 3 4 4 4 5
11 11 11 11 11 11 11 11 10 10 10 10 10 9 9 9 9 9 9 9 8 8 7 7 6 6 7 7 7 7 8 8 8 9 9 9 9 9 9 9 9 8 8 7 7 7 7 7 7 7 7 7 7 7 7 7 7 7 7 7 7 7 6 6 6 6 5 5 4 4 4 4 3 3 3 3 2 2 2 3 3 4 4 4 5
11 11 11 11 11 11 11 11 10 10 10 10 9 9 9 9 9 9 9 8 8 8 7 7 7 6 7 7 7 7 7 8 8 9 9 9 9 9 9 9 8 8 8 7 7 7 7 7 7 7 7 7 7 7 7 8 8 8 7 7 7 7 7 7 7 6 6 5 5 5 4 4 4 3 3 2 2 2 2 3 3 3 4 4 5
12 11 11 11 11 11 11 11 10 10 10 10 9 9 9 9 9 9 8 8 8 8 7 7 7 7 7 7 7 7 7 8 8 9 9 9 9 9 9 8 8 8 8 7 7 7 7 7 7 7 7 7 7 8 8 8 8 8 7 7 7 7 7 7 7 7 6 6 5 5 5 4 4 3 3 2 2 2 2 2 3 3 4 4 5
12 11 11 11 11 11 11 10 10 10 10 10 9 9 9 9 9 8 8 8 8 7 7 7 7 7 7 7 7 7 7 8 8 8 9 9 9 9 9 8 8 8 8 8 7 7 7 7 7 7 7 8 8 8 8 8 8 8 7 7 7 7 7 7 7 7 7 6 6 6 5 5 4 4 3 2 2 2 2 2 2 2 3 4 4
12 11 11 11 11 11 10 10 10 10 10 10 9 9 9 9 9 8 8 8 8 7 7 7 7 7 7 7 7 7 7 7 8 8 8 8 8 8 8 8 8 8 8 8 7 7 7 7 7 7 7 8 8 8 8 8 8 8 7 7 7 7 7 7 7 7 7 7 6 6 5 5 4 4 3 3 2 2 2 2 2 2 3 3 3
11 11 11 11 11 10 10 10 10 10 10 9 9 9 9 9 9 9 8 8 8 8 8 7 7 7 7 7 7 7 7 7 7 7 7 8 8 8 8 8 8 7 7 7 7 7 7 8 8 7 8 8 8 8 8 8 8 8 7 7 7 7 7 7 7 7 6 6 6 6 5 5 5 4 3 3 2 2 1 1 1 2 3 3 2
11 11 11 11 11 10 10 10 10 10 10 9 9 9 9 9 9 9 9 8 8 8 8 7 7 7 7 7 7 7 7 7 7 7 7 7 7 7 7 7 7 7 7 7 7 7 7 8 8 8 8 8 8 8 8 8 8 8 7 7 7 7 7 7 7 6 6 6 6 6 6 5 5 4 4 3 3 2 1 1 1 1 2 2 2
11 11 11 10 10 10 10 10 9 9 9 9 10 10 9 9 9 9 9 8 8 8 8 8 7 7 7 7 7 7 7 7 7 6 7 7 7 7 7 7 7 7 7 7 7 7 7 8 8 8 8 8 8 8 8 8 8 8 7 7 7 7 7 7 6 6 6 6 6 6 6 5 5 5 4 4 3 2 2 1 1 1 2 2 2
11 10 10 10 10 10 10 9 9 9 9 10 10 10 10 10 9 9 9 9 9 8 8 8 8 7 7 7 7 7 7 7 7 6 6 6 6 6 7 7 7 7 7 7 7 7 8 8 8 8 8 8 8 8 8 8 8 7 7 7 7 7 7 6 6 6 6 6 6 6 6 6 5 5 4 4 3 3 2 1 1 1 1 1 1
10 10 10 10 9 9 9 9 9 9 9 10 10 10 10 10 9 9 9 9 9 9 9 8 8 8 7 7 7 7 7 7 7 6 6 6 6 6 6 7 7 7 7 7 7 8 8 8 8 8 8 8 8 8 8 8 7 7 7 7 6 6 6 6 6 6 6 6 5 5 5 5 5 5 5 4 4 3 2 2 1 1 1 1 1
10 10 9 9 9 9 9 9 9 9 9 9 10 10 10 9 9 9 9 9 9 9 9 9 9 8 7 7 7 7 7 7 7 6 6 6 6 6 6 7 7 7 7 7 8 8 8 8 8 8 8 8 8 8 8 8 7 7 7 7 6 6 6 6 6 6 5 5 5 5 5 5 5 5 5 5 4 4 3 2 1 1 1 1 1
9 9 9 9 9 9 9 9 9 9 9 10 10 10 10 10 10 10 10 10 10 10 10 9 9 9 8 7 7 7 7 7 7 6 6 6 7 7 7 7 7 7 8 8 8 8 8 8 8 8 8 8 8 8 8 7 7 7 7 6 6 6 6 6 5 5 5 5 5 5 5 5 6 5 5 5 5 4 4 3 2 2 1 1 1
9 9 9 9 9 9 9 9 9 9 10 10 10 10 10 10 10 10 10 10 10 10 10 10 10 9 8 8 8 7 7 7 7 7 7 7 7 7 7 7 7 8 8 8 8 8 9 9 8 8 8 8 8 8 8 7 7 7 7 6 6 6 6 6 5 5 5 5 5 5 5 5 6 6 6 5 5 5 4 3 2 2 1 1 1
9 9 9 9 9 9 9 9 9 10 10 10 10 10 10 10 10 10 10 10 10 10 10 10 10 9 9 8 8 8 7 7 7 7 7 7 7 7 7 7 8 8 8 8 8 8 9 9 8 8 8 8 8 8 7 7 7 7 7 6 6 6 6 6 5 5 5 5 5 5 5 6 6 6 5 5 5 5 4 4 3 2 2 1 1
9 9 9 9 9 9 9 10 10 10 10 10 10 10 10 10 10 10 10 11 11 10 10 10 10 9 8 8 7 7 7 7 7 7 7 7 7 7 7 7 8 8 8 8 8 9 9 9 9 8 8 8 8 8 7 7 7 7 6 6 6 6 5 6 5 5 5 5 5 5 5 6 6 5 5 5 5 5 4 4 3 3 2 2 1
9 9 10 9 9 10 10 10 10 10 10 10 10 10 10 11 11 10 10 10 10 10 10 10 9 9 8 8 8 8 7 7 7 7 7 7 7 7 8 8 8 8 8 8 8 9 9 9 9 8 8 8 8 8 7 7 7 7 6 6 6 5 5 5 5 5 5 5 5 5 5 5 5 5 5 5 5 5 4 4 4 3 3 2 2
10 10 10 10 10 10 10 9 10 9 9 9 9 9 9 10 10 10 10 9 10 10 10 10 9 9 9 8 8 8 8 8 8 7 7 7 7 7 8 8 8 8 8 8 8 8 9 9 8 8 8 8 8 8 7 7 7 7 6 6 6 5 5 5 5 5 5 5 5 5 5 5 5 5 5 5 5 5 5 4 4 3 3 2 2
10 10 10 10 10 10 9 9 10 9 9 9 9 9 8 9 9 9 9 9 9 9 9 9 9 9 9 8 8 8 8 8 8 8 8 7 8 8 8 8 8 8 8 8 8 8 8 9 8 8 8 8 8 7 7 7 7 6 6 6 6 5 5 5 5 5 5 5 5 5 5 5 5 5 5 5 5 5 5 5 4 3 3 3 2
10 10 10 10 10 10 9 10 9 9 9 10 10 9 9 8 8 8 9 9 9 9 9 9 8 8 8 8 8 8 8 8 8 8 8 8 8 8 8 8 8 8 8 9 9 8 8 8 8 8 8 8 8 7 7 7 7 6 6 6 6 5 5 5 5 5 5 5 5 5 5 5 5 6 6 5 5 5 5 5 5 4 3 3 3
10 10 10 10 10 9 9 9 9 9 9 9 9 9 9 9 8 8 8 9 9 9 8 8 8 8 8 8 8 8 8 8 8 8 8 8 8 8 8 8 9 9 9 9 9 9 9 8 8 8 8 8 8 7 7 7 7 6 6 6 6 5 5 5 5 5 5 5 5 5 5 5 5 5 6 6 5 5 5 5 5 5 4 3 3
10 10 10 10 10 9 9 9 9 9 9 9 9 9 9 9 9 9 8 8 8 8 8 8 8 8 8 8 8 8 8 8 8 8 8 8 8 8 9 9 9 9 9 9 9 9 9 8 8 8 8 8 7 7 7 7 6 6 6 6 6 5 5 5 5 5 5 5 5 5 5 5 5 5 5 6 6 5 5 5 5 5 5 4 3
10 10 10 10 10 10 9 10 9 9 9 9 9 9 9 9 9 9 9 9 8 8 8 8 8 9 9 9 9 8 8 8 8 8 8 8 8 8 9 9 9 9 9 9 9 9 9 9 8 8 8 8 7 7 7 7 7 6 6 6 6 6 5 5 5 5 5 5 5 5 5 5 5 5 5 5 5 5 5 4 5 5 5 5 4
10 11 10 10 10 10 10 10 9 9 9 10 10 9 9 9 9 9 9 9 9 9 9 8 8 8 8 9 9 8 8 8 8 8 8 8 8 8 9 9 9 9 9 9 9 9 9 9 8 8 8 8 7 7 7 7 7 6 6 6 6 6 5 5 5 5 5 5 5 5 5 5 5 5 5 5 5 5 5 5 5 5 5 5 5
10 11 10 10 11 10 10 10 10 9 10 10 10 9 9 9 9 9 9 9 9 9 9 9 8 8 8 9 9 9 8 8 8 8 8 8 8 9 9 9 9 9 9 9 9 9 9 9 8 8 8 8 7 7 7 7 6 6 6 6 6 6 6 5 5 5 5 5 5 5 5 5 5 5 5 5 5 5 5 6 6 5 5 5 5
11 11 11 11 11 11 10 10 10 10 10 10 10 9 9 9 9 9 9 9 9 9 9 9 8 8 9 9 9 9 9 8 8 9 9 9 9 9 9 9 9 9 9 9 9 9 9 9 8 8 8 8 7 7 7 7 6 6 6 6 6 6 6 5 5 5 5 5 5 5 5 5 5 5 5 5 5 5 5 5 5 6 6 5 5
11 11 11 11 11 11 11 11 10 10 10 10 10 10 10 10 10 9 10 10 9 9 9 9 9 9 10 10 9 9 9 8 9 9 9 9 9 9 9 9 9 9 9 9 9 9 9 9 8 8 8 8 7 7 7 7 6 6 6 6 6 6 6 6 5 5 5 5 5 5 5 5 5 5 5 5 5 5 5 5 5 5 5 5 5
11 11 11 11 11 11 11 11 11 11 11 11 11 11 11 11 10 10 10 10 10 10 10 9 10 10 10 10 9 9 9 9 9 10 10 10 9 9 9 9 9 9 9 9 9 9 9 9 8 8 8 8 7 7 7 7 6 6 6 6 6 6 6 6 5 5 5 5 5 5 5 5 5 5 5 5 5 5 5 5 5 5 5 5 6
11 11 11 11 11 11 12 12 11 11 11 11 11 11 11 11 11 11 11 11 11 11 10 10 10 11 11 10 10 10 10 10 10 10 10 10 10 10 9 9 10 10 10 9 9 9 9 9 9 8 8 8 7 7 7 7 7 6 6 6 6 6 6 6 6 5 6 6 5 5 5 5 5 5 5 5 5 5 4 5 5 5 5 5 5
11 11 11 11 11 11 11 11 11 11 11 11 11 11 11 11 11 11 11 11 11 11 11 11 11 11 11 11 10 10 10 10 10 10 10 10 10 10 10 10 10 10 10 10 10 9 9 9 9 8 8 8 8 7 7 7 7 7 6 6 6 6 6 6 6 6 6 6 6 5 5 5 5 5 4 4 4 4 4 4 4 5 5 5 5
11 11 11 11 11 11 11 11 11 11 11 11 11 11 11 11 11 11 11 11 11 11 11 11 11 11 11 11 10 10 10 10 10 10 10 10 10 10 10 10 10 10 10 10 10 10 9 9 9 9 8 8 8 8 8 7 7 7 7 6 6 6 6 6 6 6 6 6 6 6 6 5 5 5 4 4 4 4 4 4 4 4 5 5 5
11 11 11 11 11 11 11 11 11 11 11 11 11 11 11 11 11 11 11 11 11 11 11 11 11 11 11 10 10 10 10 10 10 10 10 10 10 10 10 10 10 10 10 10 10 10 9 9 9 9 9 8 8 8 8 8 8 7 7 7 7 6 6 6 6 6 6 6 6 6 6 5 5 5 5 4 4 4 4 4 4 4 4 5 5
11 11 11 11 11 11 11 11 11 11 11 11 11 11 11 11 11 11 11 11 11 11 11 11 11 11 11 11 10 10 10 11 11 10 10 10 10 10 10 10 10 10 10 10 10 10 10 10 9 9 9 9 9 9 9 9 8 8 8 8 7 7 7 7 6 6 6 6 6 6 6 5 5 5 5 4 4 4 4 4 4 4 4 4 4
11 11 11 11 11 11 11 11 11 11 11 11 11 11 11 11 11 11 11 11 11 11 11 11 11 11 11 11 11 11 11 11 11 11 11 11 10 10 10 10 10 10 10 10 10 10 10 10 9 9 9 9 9 9 9 9 9 9 8 8 8 8 8 7 7 6 6 6 6 6 6 5 5 5 5 5 4 4 4 4 4 4 4 4 4
11 11 11 11 11 11 11 11 11 11 11 11 11 11 11 11 11 11 11 11 11 11 11 11 11 11 11 11 11 11 11 11 11 11 11 11 11 10 11 11 11 11 11 10 10 10 10 10 10 10 9 9 9 9 9 9 9 9 9 9 8 8 8 8 7 7 7 6 6 6 6 5 5 5 5 5 4 4 4 4 4 4 4 4 4
11 11 11 11 11 11 11 11 11 11 11 11 11 11 11 11 11 11 11 11 11 11 11 11 11 11 11 11 11 11 11 11 11 11 11 11 11 11 11 11 11 11 11 11 11 10 10 10 10 10 10 10 10 9 9 9 9 9 9 9 9 9 8 8 8 7 7 7 6 6 6 5 5 5 5 5 5 4 4 4 4 4 4 4 4
11 11 11 11 11 11 11 11 11 11 11 11 11 11 11 11 11 11 11 11 11 11 11 11 11 11 11 11 11 11 11 11 11 11 11 11 11 11 11 11 11 11 11 11 11 11 11 10 10 10 10 10 10 9 9 9 9 9 9 9 9 9 8 8 8 7 7 7 7 6 6 6 5 5 5 5 5 4 4 4 4 4 3 3 4
11 11 11 11 11 11 11 11 11 11 11 12 12 11 11 11 11 11 11 11 11 11 11 11 11 11 11 11 11 11 11 11 11 11 11 11 11 11 11 11 11 11 11 11 11 11 11 10 10 10 10 10 10 10 9 9 9 9 9 9 9 9 9 8 8 8 7 7 7 7 6 6 5 5 5 5 5 5 4 4 4 4 3 3 4
11 11 11 11 11 11 11 11 11 11 12 12 12 12 12 12 11 12 12 11 11 11 11 11 11 11 11 11 12 12 12 12 12 12 12 12 11 11 11 11 11 11 11 11 11 11 10 10 10 10 10 10 9 9 9 9 9 9 9 9 9 9 9 8 8 8 8 7 7 7 6 6 6 6 5 5 5 5 4 4 4 4 4 3 3
Height
821 822 823 825 826 827 828 829 830 832 834 837 839 841 843 844 845 845 845 845 846 846 846 846 847 847 847 847 848 849 849 849 849 849 849 849 849 848 848 848 848 847 848 847 847 846 846 845 844 843 842 840 838 837 835 834 832 830 829 828 827 827 825 823 820 814 810 810 807 802 798 795 790 786 783 778 775 773 770 768 766 764 761 758 755
822 823 824 826 827 828 829 830 832 834 835 838 840 842 844 845 845 845 845 845 846 846 846 846 847 847 848 848 849 850 850 850 850 850 850 850 850 850 850 849 849 848 848 848 847 847 846 845 845 844 842 840 839 837 835 833 832 830 829 828 827 826 825 822 819 815 810 807 805 801 798 795 790 786 782 778 775 772 769 765 763 761 759 756 753
822 824 825 827 828 829 831 832 834 836 837 839 841 843 844 845 845 845 845 846 846 846 847 847 848 848 848 849 850 851 852 852 852 851 851 851 851 851 851 851 850 850 849 849 848 848 847 846 845 844 842 840 838 837 835 834 832 831 830 829 827 825 824 822 819 815 810 806 803 800 797 794 791 786 782 779 775 772 769 764 761 759 757 754 752
823 825 826 828 829 831 832 834 836 837 839 840 842 843 844 844 845 845 846 846 846 847 847 847 848 849 849 850 851 852 853 853 853 852 852 852 852 852 852 852 852 851 850 850 849 848 847 847 846 844 842 840 838 837 835 834 832 831 830 828 827 825 823 821 819 815 810 806 803 800 797 794 791 787 782 778 774 771 768 764 760 756 754 752 750
824 825 827 829 830 832 834 835 837 838 839 841 842 843 844 844 846 846 847 847 847 848 848 849 849 850 850 851 853 854 854 854 854 853 853 853 853 853 853 853 853 852 851 850 850 849 848 847 846 845 842 840 838 837 836 834 833 831 830 828 826 825 822 820 817 814 810 806 802 800 797 794 790 787 783 778 772 768 765 761 758 755 751 749 746
825 826 828 829 831 833 834 836 837 838 839 841 842 843 844 845 846 847 847 848 848 849 849 850 850 851 852 853 854 855 855 855 855 854 854 854 854 854 854 854 854 853 852 851 850 850 849 848 847 845 843 841 839 838 836 835 833 831 830 828 826 824 821 819 816 813 810 807 803 800 797 793 790 786 782 779 774 768 762 757 754 752 749 745 741
825 827 828 830 831 833 835 836 838 839 840 841 842 843 845 846 846 847 848 849 850 850 851 852 852 853 854 855 855 856 856 856 856 855 855 855 855 855 855 855 855 854 852 852 851 850 850 849 848 846 844 843 841 840 838 836 834 832 830 828 826 824 821 818 816 813 810 807 804 800 796 793 789 785 781 778 774 770 764 757 750 746 745 742 738
825 827 829 830 832 833 835 837 838 839 840 841 842 843 845 846 847 848 849 850 851 852 852 853 854 855 855 856 856 857 857 857 857 856 857 857 856 856 856 856 855 854 853 852 851 851 850 850 849 847 846 845 843 841 839 837 834 832 830 828 826 824 822 819 816 813 810 807 804 800 796 792 788 784 780 776 772 768 765 760 752 745 741 738 735
826 828 829 831 833 834 835 837 838 839 840 841 842 844 845 847 848 849 850 851 852 853 854 854 855 856 857 857 857 858 858 858 857 857 858 858 857 857 857 856 856 855 854 853 852 852 852 850 849 848 847 846 845 843 840 838 835 833 831 829 827 825 822 819 816 813 811 807 804 800 796 792 787 783 779 776 772 767 764 761 754 747 742 735 730
826 828 830 832 833 834 835 837 838 839 841 842 843 845 846 848 849 850 851 852 854 855 855 855 856 857 857 858 858 859 859 859 858 858 859 859 858 857 857 857 856 855 854 854 854 853 852 851 850 849 848 846 845 843 841 838 836 834 832 830 828 825 822 820 817 814 811 808 804 800 795 791 787 783 778 775 772 767 763 759 753 747 742 734 726
825 828 830 832 834 834 835 837 838 840 841 843 844 846 847 849 850 852 853 854 855 856 856 857 857 858 858 859 859 860 860 859 859 859 859 859 859 858 858 857 857 856 855 854 854 854 853 852 851 850 848 846 844 842 840 838 836 834 832 830 828 826 823 820 817 814 812 809 805 801 796 791 787 783 778 773 770 766 762 758 752 746 741 735 727
826 828 831 833 834 835 836 837 839 840 842 844 845 847 848 850 851 853 854 855 856 857 858 858 858 859 859 860 860 860 860 860 860 860 860 859 859 858 858 858 857 856 856 855 855 855 854 853 852 850 849 847 845 843 840 838 836 834 832 830 828 826 824 821 818 815 812 809 805 801 796 791 786 782 777 772 768 764 760 755 751 746 740 735 730
826 829 831 833 834 835 836 837 839 841 843 844 846 847 849 851 852 853 855 856 857 858 859 859 860 860 860 860 861 861 861 861 861 861 860 859 859 859 858 858 857 857 856 856 855 855 854 853 852 850 849 847 845 843 841 838 836 834 832 829 827 826 824 822 819 816 813 809 806 801 796 791 786 781 777 772 767 762 757 753 747 743 737 732 728
827 829 831 833 834 835 837 838 840 841 843 845 846 848 850 851 853 854 855 856 857 858 860 861 861 861 861 861 862 861 862 862 861 861 860 859 859 859 859 858 857 857 857 856 856 855 855 854 852 851 849 847 845 843 841 838 836 834 831 829 827 825 823 821 818 816 813 809 806 801 797 792 787 781 776 772 768 761 756 751 745 740 734 728 724
826 829 831 832 834 835 836 838 840 841 843 845 847 848 850 851 853 854 855 856 857 858 860 861 862 862 862 862 862 862 862 862 862 861 860 860 859 859 859 858 858 857 857 857 857 856 855 854 853 851 849 847 845 844 841 839 836 834 832 829 827 825 823 820 818 815 811 809 805 801 796 792 787 781 776 771 767 761 755 750 744 738 731 724 718
825 828 830 832 833 835 836 838 839 841 843 845 847 848 850 851 852 853 854 856 857 859 860 862 863 863 864 863 863 863 862 862 861 861 860 860 860 859 859 859 858 858 858 858 857 857 856 855 853 851 850 848 846 844 842 840 837 835 832 830 827 825 823 820 818 815 811 808 805 800 796 791 786 781 775 770 765 759 753 747 741 735 729 721 715
825 827 829 831 833 835 836 837 839 841 843 845 846 848 849 851 852 853 855 856 858 859 861 862 864 864 865 864 863 863 862 862 862 861 861 861 860 859 859 859 859 859 859 859 858 857 856 855 853 852 850 848 847 845 843 840 838 835 833 830 828 825 823 820 817 814 810 807 804 800 795 790 785 780 775 769 763 757 751 744 739 735 730 723 716
825 827 828 830 833 834 836 838 839 841 843 844 846 848 849 851 852 853 855 856 858 860 862 863 864 865 865 865 864 863 863 863 862 862 861 861 860 860 860 860 860 860 859 859 859 857 856 855 853 852 850 849 847 845 843 841 838 836 833 830 828 825 822 820 816 813 809 805 802 798 793 788 784 779 774 768 762 757 752 747 742 737 732 726 719
825 827 829 830 833 834 836 838 839 841 843 845 846 848 849 851 852 854 856 857 859 861 862 863 865 865 866 866 865 864 864 863 863 862 862 861 860 860 861 860 860 860 859 859 859 857 856 855 853 852 851 850 848 846 844 842 839 836 834 831 828 826 823 820 816 812 808 804 800 796 791 787 783 778 773 768 762 757 753 749 744 739 734 729 723
825 827 829 831 833 834 836 838 840 842 844 845 847 848 849 851 853 854 856 858 859 861 862 864 865 865 866 866 865 865 865 864 863 863 862 861 861 861 861 861 861 860 859 859 858 857 856 855 853 853 851 850 848 846 844 842 840 837 835 832 829 827 824 821 817 814 809 805 800 796 791 787 783 778 773 768 762 758 754 750 746 742 736 730 724
825 827 829 831 833 835 836 838 840 842 844 845 847 848 850 851 853 855 856 858 860 861 863 864 865 865 866 866 866 866 865 864 864 863 862 862 862 862 862 861 861 861 860 859 858 857 856 855 854 853 852 850 849 847 845 843 841 838 836 834 832 829 826 822 818 814 811 806 801 797 792 787 782 778 773 768 764 760 755 751 747 742 738 732 726
825 827 829 831 833 835 837 839 841 843 844 845 846 848 850 852 853 855 857 858 860 861 862 863 864 865 866 866 866 865 865 865 864 863 863 863 863 863 862 862 861 861 860 859 858 857 857 856 855 853 852 851 849 847 846 843 841 839 837 835 833 830 826 823 819 815 811 807 802 798 793 788 783 778 774 770 766 762 758 753 749 744 739 735 730
825 827 829 831 833 835 837 839 841 843 844 845 846 848 849 851 853 855 857 858 860 861 862 863 864 865 865 866 866 865 865 865 864 864 864 864 863 863 862 862 861 860 860 859 859 858 857 856 855 854 853 852 850 848 846 844 842 840 838 836 833 830 827 823 819 816 812 808 804 799 795 790 785 781 776 772 768 765 760 756 750 745 740 736 731
825 827 829 831 833 835 837 839 841 843 844 845 846 848 849 851 853 855 857 858 859 860 861 862 863 864 865 865 865 865 864 864 864 864 864 864 863 862 862 862 861 861 860 860 859 859 858 857 856 855 854 852 851 849 847 845 843 841 839 836 833 830 827 824 820 817 813 809 806 802 797 793 789 785 781 776 772 768 763 759 753 748 743 738 733
825 827 829 831 833 836 837 840 841 843 844 845 846 847 849 851 853 855 856 857 858 859 860 861 862 863 864 864 865 865 864 864 864 864 864 864 863 862 862 862 861 861 861 860 860 859 858 857 856 855 854 853 851 849 847 845 843 841 839 837 834 831 828 825 822 819 815 812 808 805 800 796 792 789 785 780 775 770 764 759 755 750 744 740 736
824 827 829 831 833 835 837 839 841 843 844 845 846 847 849 850 852 854 855 856 858 858 859 861 861 862 863 863 864 864 864 864 864 864 864 864 863 863 862 862 862 861 861 861 860 859 858 857 856 855 854 853 851 849 847 846 844 842 839 837 835 832 829 827 823 820 818 815 811 808 804 799 796 792 788 783 778 772 767 762 757 752 747 743 738
823 826 828 831 833 835 837 839 841 842 844 845 846 847 849 850 852 853 854 855 856 857 859 860 860 861 862 862 863 864 864 864 864 864 864 863 863 863 862 862 862 862 861 861 860 859 858 857 856 856 855 853 852 850 848 846 844 842 840 838 836 833 831 829 826 823 820 817 814 811 807 802 798 794 790 786 781 777 772 767 762 758 753 748 743
823 825 828 830 832 834 836 838 840 841 843 844 845 846 848 849 851 852 853 854 855 856 857 858 859 860 861 862 863 863 864 864 864 864 863 863 863 863 862 862 862 862 861 861 860 859 858 857 857 856 855 853 851 850 848 846 845 843 841 839 837 834 832 830 827 825 822 819 816 813 808 804 800 796 793 789 785 781 777 772 768 763 758 753 748
822 825 827 829 832 834 836 837 839 840 841 842 844 846 848 849 850 851 853 854 855 856 857 858 859 860 861 862 863 863 863 863 863 863 863 863 863 863 862 862 862 862 861 861 860 859 858 857 856 855 854 853 851 849 848 846 845 843 841 840 838 836 833 830 828 826 824 821 817 814 810 806 802 799 795 792 789 786 782 777 773 769 764 759 755
822 824 826 828 831 833 834 836 838 839 840 841 843 845 847 849 850 852 853 854 855 856 857 858 859 860 861 862 862 863 863 863 862 863 863 863 863 863 863 863 862 862 861 861 860 859 858 857 856 855 854 853 851 850 848 847 845 843 842 840 839 837 834 832 830 827 825 822 819 816 813 809 805 801 798 795 792 789 786 782 778 774 770 766 763
820 822 825 827 830 831 833 835 836 838 839 841 842 844 846 849 851 852 853 854 855 856 857 858 859 860 861 861 862 862 862 862 862 862 862 863 863 863 863 863 862 862 861 861 860 859 858 857 856 855 854 853 852 850 849 848 846 844 843 841 839 838 836 834 832 829 826 823 821 818 815 812 808 805 801 798 796 793 789 786 783 779 776 773 771
818 821 823 826 829 831 832 834 835 837 839 840 842 844 845 848 850 852 853 854 855 856 857 858 859 860 861 861 861 862 861 861 862 862 862 862 863 863 863 863 862 862 861 860 860 859 858 857 857 856 855 854 852 851 850 848 847 846 844 842 840 838 837 835 833 831 828 825 822 820 817 814 811 808 805 802 799 796 793 789 787 784 781 779 776
816 819 822 825 828 830 831 833 835 836 838 840 841 843 845 847 849 851 852 854 855 856 857 858 859 859 860 861 861 861 861 861 861 862 862 862 863 862 862 862 862 861 861 860 859 859 858 857 857 856 855 854 853 852 851 849 848 847 845 843 842 840 838 837 835 832 829 827 824 822 819 817 814 811 808 805 801 799 796 793 791 788 786 784 781
816 819 822 824 827 829 830 832 834 836 838 840 841 843 845 846 848 850 851 853 855 856 857 857 858 859 859 860 860 860 860 860 861 861 862 862 862 862 862 861 861 860 860 860 859 858 858 857 857 856 855 854 853 852 851 850 849 847 846 844 842 841 839 837 835 832 830 828 826 823 821 819 816 813 811 808 805 802 800 797 795 792 790 788 787
817 820 822 824 826 827 829 831 833 835 837 839 841 843 844 846 848 849 851 852 854 855 856 856 857 858 858 859 859 859 859 860 860 861 861 861 862 862 861 861 860 860 859 859 859 858 858 857 856 856 855 854 853 852 851 850 849 847 846 844 843 841 839 837 835 833 831 829 827 825 823 820 818 815 813 811 808 805 803 800 799 796 794 793 791
816 819 822 824 825 827 829 831 833 835 837 838 840 842 844 845 847 849 850 852 853 854 854 855 856 857 858 858 858 859 859 859 859 860 860 861 861 861 861 860 860 859 859 859 858 858 857 857 856 855 855 854 853 852 851 850 849 848 847 845 843 841 839 837 836 834 832 830 828 826 824 822 820 817 815 813 810 808 806 804 802 800 798 796 794
816 818 821 823 824 826 829 831 833 835 836 838 840 842 843 845 847 848 850 851 852 852 854 854 855 856 856 857 857 858 858 858 859 859 860 860 860 860 860 859 859 858 858 858 858 857 857 856 856 855 854 853 853 852 851 850 849 848 847 845 844 842 841 839 837 835 833 831 829 827 825 823 821 819 817 815 812 810 808 806 804 803 801 799 797
815 817 819 822 824 826 828 830 832 834 835 837 839 841 842 844 845 847 848 849 850 851 852 853 853 854 854 855 856 857 857 857 858 858 859 859 859 859 858 858 858 857 857 857 857 856 856 856 855 854 854 853 852 852 851 850 849 848 846 845 844 843 841 839 838 836 834 832 830 828 826 824 822 821 819 817 815 813 811 809 807 805 803 801 799
815 817 819 821 823 825 827 829 831 833 834 836 838 839 841 843 844 846 847 848 849 850 851 851 852 852 852 853 855 855 856 856 856 857 857 857 857 857 857 857 857 856 856 856 856 855 855 855 854 854 853 853 852 851 850 849 848 847 846 845 843 842 841 839 838 836 834 832 830 829 827 825 823 822 820 818 816 815 813 811 809 807 805 804 802
814 816 818 820 822 824 826 828 830 832 833 835 836 838 840 841 843 844 845 846 847 848 849 850 850 850 851 852 853 853 853 854 854 855 855 855 855 855 855 855 855 855 855 855 855 854 854 854 853 853 853 852 851 850 849 848 847 846 845 844 843 842 840 839 838 836 835 833 831 830 828 826 824 822 821 819 818 816 815 813 811 809 808 806 804
814 816 818 820 822 824 825 827 829 831 832 834 835 837 839 840 842 843 844 845 846 847 847 848 848 849 849 850 850 851 851 852 852 853 853 853 853 853 853 853 853 853 854 854 853 853 853 853 852 852 851 851 850 849 848 847 847 845 844 843 842 841 840 838 837 836 835 833 832 830 828 827 825 823 822 820 818 817 815 814 812 811 809 808 806
814 815 817 818 821 823 825 826 828 830 832 834 835 836 838 839 840 842 843 844 845 845 846 847 847 847 848 848 849 849 849 850 851 851 851 851 851 851 851 852 852 852 852 852 852 851 851 851 851 850 849 849 848 848 847 846 845 844 843 842 841 840 839 838 836 835 834 833 832 830 829 827 826 824 823 821 819 817 816 814 812 811 810 808 807
814 815 816 817 819 821 824 826 828 830 832 833 834 836 837 838 839 841 842 842 843 844 845 846 846 846 846 847 847 848 848 849 849 850 850 850 850 849 850 850 850 850 850 850 850 850 849 849 848 848 847 847 846 846 845 844 843 842 841 841 839 838 837 836 835 834 833 832 831 830 828 827 826 824 823 821 820 818 816 815 813 811 810 809 808
815 816 817 818 819 821 823 825 827 829 831 832 834 835 836 837 838 839 840 841 842 843 843 844 845 845 845 845 846 846 847 847 848 848 848 848 848 848 848 848 848 848 848 848 848 847 847 847 846 846 845 845 844 844 843 842 841 840 839 838 837 837 836 835 834 833 831 830 829 828 827 826 825 824 823 821 820 819 817 815 814 812 811 809 808
816 817 818 818 819 821 822 824 826 828 830 831 833 834 835 836 837 838 839 840 840 841 842 843 843 843 844 844 844 845 845 846 846 846 846 846 846 846 846 846 846 846 846 846 846 845 845 844 844 843 842 842 841 841 840 839 838 837 836 836 835 834 833 833 832 831 830 829 828 827 826 825 824 823 822 821 820 819 817 816 814 813 811 810 808
816 817 818 819 820 821 822 823 825 827 829 830 831 832 834 835 836 837 837 838 839 839 840 840 841 841 841 842 842 842 843 843 843 843 844 844 844 844 844 844 844 844 844 843 843 842 842 841 841 840 839 839 838 838 837 836 835 834 833 832 832 831 830 830 829 828 828 827 826 825 825 824 823 822 821 820 819 818 817 815 814 813 811 810 809
816 817 819 819 820 820 821 822 824 826 827 829 830 831 832 834 835 835 836 836 837 838 838 838 839 839 839 839 840 840 840 841 841 841 841 841 841 841 841 841 841 841 841 840 840 839 838 838 837 836 836 835 835 834 834 832 832 831 830 829 829 828 827 827 826 825 825 825 824 823 823 822 821 820 819 818 818 817 816 815 813 812 811 810 808
815 817 818 819 819 820 821 822 823 824 825 827 828 830 831 832 833 834 834 835 835 835 836 836 837 837 837 837 838 838 838 838 838 838 838 838 838 838 839 839 838 838 837 837 836 835 835 834 834 833 833 832 831 831 831 830 829 828 827 826 826 825 824 824 823 822 822 821 821 820 820 819 819 818 817 816 816 815 814 813 812 811 810 809 807
814 815 816 817 818 819 820 821 822 823 824 825 826 828 829 830 831 832 832 833 833 833 834 834 834 835 835 835 836 836 836 836 836 836 836 836 836 836 836 836 835 835 834 834 833 833 832 832 831 831 830 829 829 828 827 827 826 825 824 824 823 822 821 821 820 819 819 818 818 817 817 816 815 815 814 814 813 812 812 811 810 809 808 807 806
813 814 815 816 817 818 819 820 821 821 822 823 824 826 827 828 829 829 830 830 831 831 831 832 832 832 833 833 833 833 833 833 833 833 833 834 834 833 833 833 833 833 832 832 831 831 831 830 829 828 828 827 826 825 824 824 823 822 821 821 820 819 818 818 817 816 816 815 814 814 813 813 812 811 811 810 810 809 808 808 807 807 806 805 804
812 813 813 814 815 816 817 818 819 820 821 822 823 824 825 826 826 827 828 828 829 829 829 830 830 830 830 830 831 831 831 831 831 831 831 831 831 831 831 831 831 830 830 829 829 828 828 827 826 826 825 824 823 823 822 821 820 818 818 817 816 815 815 814 814 813 813 812 811 811 810 809 809 808 807 807 806 805 805 804 804 803 803 802 801
Wind_Speed
21 21 21 21 21 21 21 22 23 23 22 20 20 19 18 18 18 17 17 18 17 17 17 16 15 13 13 14 16 18 19 20 20 20 20 21 22 23 22 22 23 23 23 23 23 22 22 23 23 23 22 22 22 21 21 22 22 20 19 17 17 17 18 18 14 16 22 24 25 28 30 31 33 34 36 37 37 37 37 37 35 33 33 34 33
21 21 21 22 21 21 22 22 22 21 21 21 21 20 19 19 18 18 19 18 18 18 18 16 14 13 13 15 18 19 19 19 20 21 20 21 22 23 22 23 24 24 24 24 23 22 22 23 23 23 23 23 23 23 23 23 23 21 19 17 17 19 21 21 18 17 21 25 27 28 28 30 32 34 35 35 36 36 37 38 37 35 34 34 33
22 23 24 23 22 22 22 22 21 20 20 21 21 20 20 19 19 20 20 19 17 17 16 15 14 13 15 17 18 19 18 18 20 21 22 22 22 22 23 23 24 24 24 24 22 21 22 23 24 24 25 25 25 24 23 24 23 19 19 19 18 20 23 22 21 20 20 23 26 27 28 30 31 33 34 35 35 35 35 37 37 36 34 33 33
23 24 24 23 22 22 22 21 22 21 21 21 22 21 20 20 20 20 20 19 18 16 15 14 14 15 16 17 18 18 17 18 20 22 23 23 22 22 23 23 23 23 23 23 22 22 22 24 26 26 26 27 26 25 24 25 24 21 22 24 23 23 24 23 23 23 21 21 23 25 27 29 30 32 34 34 34 34 34 35 36 35 33 31 33
24 24 22 22 23 22 21 22 22 21 21 22 22 21 21 21 21 20 21 20 19 17 16 16 16 17 19 18 18 17 17 19 21 22 23 23 22 21 21 21 22 23 23 23 23 22 22 24 27 27 28 29 27 27 26 26 25 25 27 28 28 28 27 27 28 26 22 21 23 25 26 27 27 29 31 32 34 35 35 35 34 33 34 35 36
24 23 23 24 24 23 22 22 22 22 23 23 22 21 21 21 20 20 19 19 18 17 17 18 17 19 21 20 19 18 18 20 21 21 22 22 22 20 20 20 21 22 23 23 23 22 22 24 27 28 29 30 28 28 28 27 26 27 27 27 28 29 30 30 30 26 22 21 23 24 25 25 25 26 27 29 31 33 36 36 34 34 35 38 40
25 25 24 25 24 23 23 23 23 24 23 23 23 22 22 21 21 20 19 19 18 17 17 17 18 20 21 21 20 20 20 20 20 21 21 21 21 20 19 20 21 22 23 22 22 21 21 23 26 28 29 29 29 28 28 28 27 27 26 26 26 27 28 28 27 24 22 22 23 23 24 25 24 25 26 28 27 27 29 31 32 36 38 38 40
25 24 24 25 24 23 24 24 24 24 23 24 24 23 23 22 21 21 20 19 19 16 16 17 18 19 19 20 20 20 20 20 19 20 20 20 20 19 18 19 20 23 25 23 21 20 21 22 23 26 28 29 29 28 28 26 26 25 25 24 25 26 26 27 26 23 21 23 23 23 24 25 24 25 26 26 25 25 25 27 29 34 39 41 40
24 24 24 25 24 23 24 24 24 23 23 24 24 24 24 23 22 22 21 20 18 16 16 16 18 18 18 18 18 19 19 19 19 19 18 18 18 17 16 16 18 22 26 25 20 18 20 21 22 25 28 29 29 28 27 25 24 23 23 23 24 25 26 28 28 24 21 22 23 24 24 24 25 27 26 24 24 26 27 27 28 32 37 39 40
24 25 25 25 24 24 25 25 24 23 23 24 24 23 23 23 23 23 21 19 17 17 17 18 18 17 17 17 16 16 17 17 17 17 16 16 16 15 14 14 16 19 25 26 21 18 19 21 22 24 26 28 29 29 27 26 24 23 23 22 22 23 24 26 28 26 23 21 22 23 22 22 24 28 28 27 27 26 27 28 29 31 32 31 33
26 26 26 25 25 25 25 26 26 25 25 24 24 24 23 22 23 22 21 19 17 17 19 20 18 17 16 15 15 14 15 15 15 14 14 14 14 14 13 13 14 17 23 25 23 21 20 21 23 23 24 26 29 30 29 29 28 26 24 24 23 23 24 24 26 26 24 23 24 24 22 23 26 27 28 30 29 28 30 30 28 29 28 21 21
27 26 26 25 26 26 26 27 26 25 25 25 24 24 23 23 22 22 21 20 18 17 19 20 19 17 15 14 14 14 13 14 13 13 12 12 12 14 15 13 12 15 20 22 22 22 22 21 23 24 24 25 28 30 30 31 31 30 28 27 25 24 24 25 25 25 24 24 27 28 27 29 30 29 30 32 33 33 33 31 27 26 26 23 19
27 26 26 26 26 27 27 27 26 25 25 24 24 24 24 23 23 22 21 20 19 18 17 18 19 18 16 14 13 13 12 12 12 11 10 10 11 13 15 13 12 14 17 19 20 22 23 23 24 25 25 26 27 29 30 31 32 32 31 30 28 27 26 26 26 26 26 26 27 28 31 32 33 33 34 33 34 35 33 32 32 28 28 29 26
27 26 26 27 27 28 27 27 27 26 26 25 25 24 24 23 23 22 21 20 18 17 17 17 19 19 18 16 13 12 11 10 9 9 10 11 13 14 14 13 13 13 15 16 18 21 23 23 25 26 26 28 29 29 31 32 33 33 33 31 30 29 29 28 29 29 28 28 28 30 32 33 34 35 36 34 33 33 32 33 33 31 30 31 29
27 27 28 28 28 28 28 28 28 27 27 26 25 25 24 23 23 22 21 20 18 17 16 17 18 19 19 18 16 14 12 9 9 10 12 13 16 16 15 13 12 12 14 15 16 19 21 23 25 26 27 28 29 29 30 33 33 33 33 32 30 31 31 30 32 32 30 29 30 33 34 34 35 36 35 35 33 32 32 31 30 31 32 31 30
28 28 28 28 28 29 29 29 29 28 28 27 26 25 24 24 23 22 21 20 19 18 16 14 16 18 20 19 18 17 14 11 10 12 13 14 15 16 16 15 12 11 13 16 16 17 19 21 24 26 28 29 28 28 30 32 32 32 33 31 31 32 33 32 34 36 35 32 32 35 35 35 36 36 36 36 35 34 34 32 32 34 32 28 26
28 28 28 28 29 30 29 29 29 29 28 27 26 25 24 23 22 21 21 20 19 18 17 14 13 16 18 19 20 20 18 14 10 10 10 11 13 14 15 15 14 12 13 16 16 17 18 21 24 25 28 29 28 28 30 31 32 32 32 31 30 32 33 33 34 38 39 36 35 36 36 37 37 36 36 38 38 37 35 32 34 35 29 20 16
27 28 28 29 30 29 29 29 29 28 27 26 25 24 23 23 21 20 20 19 17 16 15 14 13 14 17 18 19 20 20 18 14 12 11 10 12 13 13 14 14 13 13 14 15 17 19 22 24 24 26 29 27 27 29 31 31 32 32 30 30 31 34 34 35 38 40 38 37 38 37 38 38 36 37 40 40 39 36 32 34 34 27 20 17
27 28 28 29 30 29 29 29 28 28 27 25 25 24 23 23 21 19 19 20 19 18 17 17 16 16 16 17 17 18 19 20 18 17 15 13 12 12 11 12 13 14 14 13 14 16 19 21 23 24 25 27 26 26 28 29 31 32 31 30 30 32 33 34 33 36 39 39 39 38 37 38 39 38 39 41 41 41 38 35 35 34 29 25 24
27 29 29 29 29 29 29 29 28 28 26 25 24 23 23 22 20 19 19 19 18 17 16 16 15 14 14 15 15 14 15 17 18 18 17 15 13 12 11 12 13 14 15 14 13 15 18 21 23 23 24 25 25 26 28 28 29 31 31 30 31 31 32 33 32 35 38 39 38 38 36 38 40 39 39 41 42 42 40 38 37 35 31 28 28
28 30 29 29 29 28 28 29 28 27 25 24 24 23 22 22 21 20 19 17 15 14 12 11 11 11 11 12 13 13 12 13 15 17 16 15 13 12 12 12 12 12 13 13 14 16 19 21 22 22 23 25 24 25 28 28 28 29 30 30 30 30 30 32 33 34 37 38 37 37 37 39 41 41 40 41 41 40 40 39 38 36 33 31 30
31 30 29 29 29 28 28 28 28 26 25 25 25 23 21 21 21 21 19 17 15 14 12 10 10 10 10 10 11 12 11 10 11 14 14 14 12 11 12 12 11 12 13 14 15 16 18 19 20 21 23 24 22 24 27 27 26 29 29 28 29 29 30 32 34 34 36 37 37 36 36 38 40 41 41 41 41 40 38 38 39 37 34 32 31
31 30 30 29 28 28 28 28 27 26 25 24 23 21 20 21 21 20 18 16 16 15 13 12 12 12 11 10 10 10 9 8 8 9 11 11 11 10 10 11 11 12 13 14 15 15 16 18 19 20 22 23 21 23 27 27 26 27 28 28 29 30 31 33 35 34 34 36 36 35 36 37 38 40 41 41 40 40 37 36 39 39 36 34 34
31 30 30 29 28 28 28 27 26 25 25 24 23 21 21 21 20 18 16 16 16 15 14 14 14 14 13 11 10 9 7 6 4 5 6 7 9 9 9 10 10 11 12 12 13 14 15 16 17 18 20 22 22 22 25 28 27 26 28 29 30 31 32 33 34 34 34 35 35 35 36 37 36 38 40 39 38 39 39 37 38 39 37 34 35
31 30 29 29 29 29 27 27 26 25 24 24 22 21 21 21 21 20 18 17 16 15 14 14 15 15 15 14 12 8 4 4 2 4 5 5 8 10 10 10 10 11 11 11 12 13 14 14 16 17 19 20 22 23 25 27 27 26 27 29 30 31 32 33 33 34 34 34 34 35 36 37 36 36 38 39 38 40 41 40 39 40 39 37 37
31 30 30 30 29 28 28 27 26 24 23 23 22 22 22 21 21 20 19 17 16 15 15 15 15 16 16 15 12 7 2 3 4 6 6 7 9 11 11 11 11 11 11 11 10 12 13 14 15 17 18 19 22 23 24 26 27 26 27 30 31 32 32 33 33 33 33 33 34 35 36 37 36 35 37 39 39 40 41 41 41 41 39 37 37
31 31 31 30 29 29 29 28 26 25 23 22 21 20 19 18 18 18 17 16 15 15 16 16 15 16 16 15 11 6 4 4 6 7 8 9 10 11 11 11 11 11 11 11 12 13 14 14 14 16 17 18 21 23 23 25 27 27 27 29 31 32 32 31 31 32 33 33 33 35 37 38 37 36 36 37 38 39 40 39 39 39 38 36 35
32 31 30 30 30 30 30 29 27 25 23 21 19 18 17 17 17 16 15 14 15 17 17 16 15 15 16 15 10 6 4 4 6 7 8 9 10 11 11 10 10 10 11 12 13 14 14 13 14 15 17 19 21 23 24 25 27 27 27 28 30 32 31 31 31 33 34 34 34 35 37 38 39 38 36 35 36 37 38 38 37 38 39 37 34
31 30 30 31 31 31 30 27 26 24 22 21 19 18 17 17 16 16 14 13 13 14 15 14 14 13 14 13 8 5 4 4 6 8 9 10 10 10 10 9 9 10 11 11 11 13 14 14 14 16 18 20 21 23 24 25 26 27 27 27 29 31 31 32 32 32 33 34 35 36 37 37 38 38 37 36 34 34 36 36 36 37 39 38 35
31 30 31 32 32 30 27 25 24 23 23 24 23 20 18 16 16 16 14 13 12 11 11 11 11 10 11 10 6 4 4 5 6 7 8 9 9 9 8 7 7 9 10 10 10 11 13 15 15 16 18 20 20 22 23 24 25 27 27 27 28 29 30 30 30 30 32 34 34 35 36 36 37 38 38 37 35 33 33 33 34 34 35 34 33
31 31 32 33 32 28 26 26 26 25 24 24 22 21 20 17 15 14 14 12 11 9 9 10 10 9 9 9 7 6 5 5 5 6 7 7 7 6 5 4 5 6 7 9 9 9 10 13 15 15 17 18 19 20 21 22 23 25 26 27 28 28 28 29 28 28 31 33 33 34 35 36 37 38 37 36 35 33 32 31 32 32 32 31 30
32 31 32 34 31 27 27 28 27 26 24 23 21 20 20 19 17 14 13 11 9 9 9 9 9 8 8 8 8 7 6 5 5 6 6 6 5 3 3 4 4 5 5 7 9 9 9 11 13 14 15 17 17 18 19 20 21 23 25 26 27 27 27 27 26 26 29 31 33 34 34 34 35 37 37 36 35 34 33 31 30 29 30 29 29
32 32 34 34 30 27 29 29 27 25 24 22 21 21 22 21 19 17 14 13 11 10 10 10 9 8 8 8 7 6 6 5 5 5 6 5 3 2 3 4 5 4 2 5 8 9 8 9 11 12 13 15 15 16 17 18 19 21 22 24 25 24 25 26 25 25 27 29 31 32 33 33 34 35 36 36 35 34 34 32 29 28 28 27 27
32 34 36 33 28 29 31 29 26 25 24 22 22 23 22 21 21 19 17 16 14 13 12 12 10 9 8 7 7 6 6 5 5 5 5 4 2 1 3 4 4 4 3 4 7 9 8 7 9 11 11 12 13 14 15 16 17 19 20 22 23 23 24 26 26 25 26 27 29 31 32 32 33 33 34 34 35 35 34 33 31 28 26 25 24
33 36 35 30 28 31 31 27 25 25 25 24 23 23 22 21 21 20 19 18 17 16 16 14 13 11 9 8 7 7 7 6 6 6 5 4 2 1 3 3 4 5 4 4 6 8 8 6 7 8 9 11 12 12 13 15 16 17 18 20 22 23 24 26 27 25 24 26 27 29 30 30 31 31 31 32 33 34 34 34 32 30 27 24 22
35 36 31 27 29 31 28 25 25 26 26 25 25 24 24 23 21 20 19 19 18 18 17 15 13 11 9 8 8 8 8 7 6 6 5 4 2 1 2 3 4 5 5 3 4 7 7 6 6 7 8 9 10 10 11 13 14 15 16 17 20 22 23 24 26 24 23 24 26 27 28 29 29 29 30 31 32 32 33 34 33 32 29 26 22
36 35 29 27 30 29 26 25 26 25 25 26 26 25 25 23 21 19 19 19 18 18 17 15 14 12 11 10 9 8 7 6 4 4 5 5 3 4 4 5 6 6 4 3 4 6 6 5 6 7 8 9 9 9 10 11 12 14 14 14 17 19 20 21 23 23 22 22 24 26 27 27 27 27 28 29 30 31 31 32 33 32 31 29 25
36 33 28 28 30 29 28 29 28 25 26 27 27 26 25 23 22 21 20 19 18 18 17 16 16 14 12 11 10 9 7 5 5 4 5 6 6 6 5 5 7 7 5 3 4 5 5 5 5 6 7 8 9 11 11 11 11 13 13 13 14 17 18 19 21 22 21 20 21 23 24 25 25 26 26 26 27 28 29 30 30 31 31 30 27
35 31 26 27 30 29 29 30 29 27 26 26 27 28 27 25 23 22 21 20 19 18 18 18 17 15 13 11 12 12 10 8 6 5 5 7 8 9 8 6 6 6 6 5 5 6 6 5 4 6 7 8 10 12 12 11 11 12 13 13 13 15 17 18 19 21 21 20 19 19 21 22 23 24 25 24 25 25 26 27 27 28 28 29 28
35 30 26 27 29 27 26 28 27 25 23 22 23 25 24 22 21 19 18 19 19 17 17 18 16 15 14 13 14 14 12 9 7 5 6 7 8 9 10 9 6 6 7 7 7 6 5 5 5 7 8 10 11 12 12 12 11 12 14 14 13 14 15 16 17 18 19 19 17 17 18 19 20 22 24 24 23 23 23 24 25 25 26 26 26
34 28 25 27 27 24 25 27 25 24 22 19 19 21 20 19 18 16 15 15 15 14 14 15 13 12 12 15 16 15 11 7 6 6 7 9 9 9 10 10 9 9 9 8 8 8 7 7 8 10 10 10 10 11 12 13 12 13 15 15 14 14 14 14 15 17 17 17 17 16 16 15 16 19 21 22 21 21 22 23 23 22 23 24 24
33 27 24 27 27 25 25 26 24 24 22 18 17 19 20 18 17 17 14 13 14 13 13 13 11 9 9 13 16 14 10 8 7 7 8 10 11 11 11 11 11 10 10 9 10 10 10 9 9 10 11 11 11 12 14 14 13 13 14 15 15 16 16 16 15 16 16 16 16 15 15 15 13 14 17 19 20 19 20 22 22 21 21 23 23
32 26 24 26 27 26 25 25 24 25 24 19 16 18 20 18 17 16 15 13 14 15 15 13 11 9 9 12 15 14 12 10 9 10 11 11 11 11 11 11 11 11 11 11 10 10 10 9 9 10 11 12 13 15 16 16 15 14 14 16 16 17 18 18 18 17 17 17 16 15 15 15 14 12 13 16 17 17 18 19 21 21 21 21 21
29 24 22 25 26 25 25 25 24 24 25 22 17 16 18 20 19 18 17 14 13 13 13 13 11 10 10 13 16 16 14 12 12 12 12 11 10 10 10 11 12 12 12 12 12 12 12 12 12 13 13 13 14 16 17 17 16 15 16 18 18 18 19 19 19 20 20 19 18 16 15 15 15 14 13 14 15 16 15 16 18 19 20 20 19
27 24 23 24 24 23 24 25 24 23 24 22 18 15 17 19 20 19 18 17 16 15 15 14 13 12 11 12 14 15 15 15 14 13 12 12 12 11 11 12 13 13 13 13 13 14 15 15 16 16 15 15 15 15 15 14 14 14 15 16 17 18 18 17 18 21 21 21 20 19 17 16 16 16 14 13 14 15 14 14 15 16 17 19 19
26 23 23 23 22 21 22 24 25 24 23 22 19 16 15 15 15 15 15 14 15 17 18 18 16 15 15 16 16 16 15 15 15 15 14 14 14 14 13 13 13 14 14 14 13 14 16 17 17 17 17 17 18 17 16 14 14 14 14 15 15 16 16 16 16 18 21 22 22 21 19 18 17 17 16 15 14 14 14 13 12 13 15 16 18
26 25 24 23 21 19 19 21 23 23 22 21 19 18 16 15 14 14 14 14 14 15 17 18 18 17 17 18 17 17 17 17 18 17 17 16 16 16 15 14 15 16 17 17 17 18 20 20 20 21 21 21 21 21 20 18 17 16 16 16 16 16 15 15 15 17 19 21 23 23 21 20 19 19 18 16 15 15 15 14 13 13 14 15 17
27 29 29 27 23 19 18 18 19 20 21 22 21 20 19 18 18 18 17 16 15 14 14 15 16 15 15 15 15 15 16 17 17 17 17 17 17 17 16 16 16 17 18 19 20 21 22 23 24 24 25 25 25 24 24 22 20 20 20 20 19 17 16 15 16 17 17 19 21 23 23 23 22 21 20 19 17 17 17 16 14 14 15 16 17
28 29 29 29 27 22 19 19 18 18 19 21 22 22 21 20 20 20 20 19 19 18 17 17 17 15 14 14 13 14 15 16 17 18 18 17 17 16 17 17 18 20 21 22 23 23 24 25 26 26 27 27 27 27 26 25 24 23 23 24 23 21 19 18 18 18 18 18 20 22 24 24 24 24 23 22 20 19 18 18 17 16 16 18 20
28 29 27 28 28 26 23 22 22 22 21 20 20 21 22 21 20 20 20 19 19 19 19 20 20 20 19 18 18 18 18 18 18 18 17 16 16 17 17 17 18 19 21 22 23 23 23 24 25 26 27 28 29 29 29 29 28 27 27 27 27 26 23 22 21 21 21 21 21 22 24 25 26 26 26 25 23 22 21 21 20 19 19 20 21
23 28 27 26 28 28 27 27 25 24 24 22 20 19 20 21 19 18 18 17 16 16 15 16 16 17 17 17 17 17 17 17 18 18 17 17 17 16 15 13 13 14 14 15 16 17 17 17 19 21 22 24 26 27 28 29 30 30 30 30 30 29 27 25 25 24 24 24 24 25 25 26 27 28 28 28 27 26 25 24 23 23 22 23 23
Wind_Direction
132 132 132 131 131 129 128 131 131 129 131 132 131 128 124 122 118 114 110 105 101 96 90 86 84 82 83 87 92 95 89 80 74 73 70 68 67 64 61 59 58 56 52 48 46 44 40 36 30 25 23 20 15 12 9 5 3 360 359 356 354 355 348 338 327 317 319 324 324 322 325 327 325 324 325 324 326 328 326 324 323 322 320 318 316
135 136 136 135 132 129 128 130 131 131 129 128 127 125 123 121 117 113 108 104 100 96 91 87 82 79 82 91 100 100 91 83 81 78 72 70 69 66 64 63 62 58 53 49 47 44 38 33 29 24 21 16 12 11 8 4 2 360 1 2 356 353 349 339 328 322 322 323 323 324 327 328 324 323 324 324 324 325 324 322 320 319 317 316 315
138 137 134 132 130 129 128 129 132 131 128 127 126 124 121 118 115 110 105 102 100 96 92 88 82 78 82 95 106 104 93 86 85 82 77 73 71 69 66 64 61 57 52 49 46 43 38 32 28 23 18 14 12 10 8 6 7 5 4 2 351 342 341 336 327 322 318 318 320 324 329 329 326 325 325 323 322 322 321 320 319 318 317 316 315
136 133 129 128 129 129 128 129 131 131 130 130 127 124 121 117 112 108 103 99 95 91 87 84 83 80 83 95 107 105 95 89 87 85 81 77 74 72 68 62 58 55 52 48 45 43 40 34 28 23 19 17 14 13 15 16 16 14 7 0 352 342 337 333 331 324 313 312 319 325 329 328 327 327 326 324 322 321 320 319 319 318 317 316 314
134 134 131 129 128 129 130 131 132 131 130 129 126 124 122 119 115 110 105 99 92 85 78 75 81 84 84 92 103 102 95 92 91 88 84 82 78 72 68 62 55 54 52 48 45 45 42 33 28 26 23 21 20 20 21 21 18 13 8 3 357 352 347 344 343 335 319 315 323 325 326 327 327 326 327 327 324 322 321 319 318 317 316 316 314
139 139 137 134 132 133 133 133 132 130 127 125 124 123 120 118 115 110 105 98 91 83 75 72 80 87 88 91 97 98 96 95 93 90 87 85 81 76 71 64 57 54 51 47 45 44 40 34 30 30 28 25 24 23 21 18 14 10 8 5 1 357 355 353 351 343 332 328 329 327 327 326 324 323 325 326 323 320 320 318 316 315 316 316 316
141 140 138 135 134 135 134 134 131 128 127 125 123 121 118 116 112 108 104 98 92 85 75 73 82 91 92 91 93 95 95 95 93 91 90 87 83 79 74 67 61 56 51 48 46 42 39 37 33 31 29 27 25 24 21 18 15 14 12 8 5 3 0 358 356 349 344 340 333 329 327 325 321 320 321 322 319 316 318 318 315 315 316 314 313
141 141 138 135 136 136 135 134 132 130 129 128 126 123 120 118 114 111 107 101 96 89 80 79 86 94 95 92 92 94 94 94 93 92 93 90 86 81 74 70 67 59 51 50 49 44 41 40 35 32 31 31 30 30 28 24 20 19 16 12 10 8 5 2 358 351 346 344 338 334 331 328 325 322 321 322 320 317 319 316 310 310 313 311 309
145 144 140 137 138 138 136 135 134 132 130 127 125 122 120 118 115 113 110 104 98 91 85 86 90 96 98 95 95 94 92 90 89 91 94 92 88 84 75 72 72 62 54 52 52 47 43 40 37 34 33 33 35 36 36 33 28 23 18 14 10 9 7 3 358 351 344 341 340 336 332 331 331 329 326 325 321 317 317 314 307 306 308 307 305
146 142 140 140 140 138 135 134 132 130 127 125 123 122 120 119 116 112 109 104 97 90 86 87 92 98 101 99 97 93 88 84 83 89 95 94 91 87 79 78 78 65 54 52 54 53 47 42 37 33 30 27 29 31 31 29 26 22 18 15 11 8 6 3 358 353 346 339 336 333 329 327 329 328 326 325 321 317 316 313 307 306 306 304 304
144 141 141 142 141 138 135 133 131 129 127 127 126 124 123 120 117 112 109 106 98 89 84 83 88 96 102 102 98 92 85 82 85 93 98 98 95 88 85 89 84 65 53 52 53 52 49 42 35 30 25 21 21 22 22 20 17 14 10 8 8 7 5 3 359 356 349 341 336 332 327 323 325 325 324 325 324 320 317 314 307 304 305 303 303
143 143 144 144 142 139 136 134 132 130 129 128 126 125 124 121 118 115 112 109 102 91 82 79 81 89 100 103 97 91 88 87 91 97 101 104 100 91 89 91 82 63 54 53 52 48 44 37 32 28 23 20 17 15 15 15 13 11 7 3 0 360 360 360 359 357 354 347 340 336 334 330 329 328 327 327 327 324 322 317 309 302 298 295 293
146 147 148 147 143 140 138 136 133 132 130 129 128 126 124 122 120 117 113 111 106 96 86 79 77 82 93 99 96 92 91 89 91 94 95 99 101 99 93 82 70 61 55 53 52 47 40 33 29 26 23 20 16 12 12 11 10 11 9 5 360 356 356 356 357 357 356 352 345 340 340 337 333 332 332 333 331 327 326 321 314 309 301 296 294
151 151 150 148 145 143 141 138 136 134 133 132 130 128 125 123 122 120 116 114 108 100 91 82 78 80 85 92 96 93 87 84 84 81 83 88 90 93 91 74 63 61 56 52 50 45 37 31 27 24 22 21 16 12 11 10 9 9 8 6 1 359 358 356 356 355 352 353 350 344 344 343 338 337 337 339 336 330 328 325 321 318 311 306 304
154 153 151 149 148 146 143 140 138 137 135 134 131 128 126 125 125 124 119 114 110 104 94 83 79 80 83 87 91 89 81 81 81 75 81 91 89 86 84 74 66 64 56 50 45 39 31 28 27 24 21 20 16 13 11 10 9 8 6 6 3 1 1 1 360 356 349 348 349 347 348 347 345 344 344 345 344 340 337 333 330 329 324 320 319
154 153 152 151 149 146 143 141 139 137 136 135 133 131 129 127 127 127 123 119 116 112 104 91 83 81 83 85 86 84 80 82 84 80 84 94 92 86 83 77 74 73 60 48 41 34 26 24 26 23 21 19 16 14 13 11 11 9 6 7 6 3 3 4 3 1 354 348 349 350 352 352 352 352 351 352 353 351 349 346 344 343 335 327 325
153 152 150 148 147 146 144 142 139 138 138 137 135 133 130 128 127 129 128 126 123 119 114 107 93 84 82 84 83 81 78 77 82 84 86 93 91 86 81 75 74 78 66 49 38 32 27 25 24 21 19 17 15 14 14 12 12 11 8 8 7 3 4 5 4 4 0 354 352 354 357 358 357 356 356 358 360 360 357 353 349 346 337 329 326
150 149 147 146 147 147 146 144 141 140 140 138 136 134 131 129 129 130 130 130 129 128 126 118 104 89 83 82 82 81 77 74 77 78 81 88 89 85 81 73 69 70 64 49 32 26 25 23 21 18 16 15 14 15 15 13 13 12 9 9 7 3 4 5 3 2 0 358 357 358 0 2 1 358 359 1 4 5 3 356 351 346 339 335 332
149 148 148 148 149 148 147 145 144 142 140 138 137 135 133 133 131 128 125 124 122 122 120 113 104 94 86 81 79 80 79 75 73 73 75 82 83 80 78 70 62 57 52 40 24 20 22 22 20 18 16 15 15 17 17 15 15 15 13 12 9 4 4 5 1 358 357 356 357 357 358 3 3 2 2 3 5 7 5 0 356 350 341 338 336
151 150 150 150 150 148 147 146 145 143 141 141 140 139 137 137 137 133 127 124 122 119 116 112 107 101 92 83 76 76 77 76 74 70 70 73 74 73 71 63 55 50 44 35 22 18 21 21 20 20 19 16 16 19 19 18 18 18 17 15 12 7 6 5 1 359 357 356 356 356 357 2 5 5 5 5 6 7 6 4 1 355 348 344 341
151 149 149 149 148 147 147 146 145 143 142 142 141 140 139 139 141 140 137 135 131 130 130 128 122 115 104 93 83 75 72 74 75 70 66 65 65 67 65 57 51 47 41 35 24 17 16 17 19 22 22 18 17 20 20 19 20 20 19 17 15 12 11 8 4 1 360 358 358 358 359 2 4 6 7 7 7 7 5 6 5 0 357 354 348
149 148 146 145 146 147 147 146 145 144 144 143 141 141 143 145 145 143 143 144 144 147 151 152 148 141 128 110 94 81 69 69 76 74 68 62 60 63 63 59 54 49 41 32 22 15 14 17 21 24 23 19 19 22 22 20 21 22 20 18 17 16 15 13 8 4 2 1 0 360 0 1 2 4 6 7 8 8 6 6 7 5 3 2 1
148 146 144 144 146 148 148 148 147 147 147 146 144 142 143 146 145 143 145 149 154 159 163 164 165 163 150 131 109 87 68 64 80 86 78 67 64 67 69 65 59 52 41 28 18 16 17 20 25 28 25 21 21 24 24 23 22 22 21 20 18 18 18 16 11 7 4 3 2 1 1 1 1 3 4 4 6 9 8 8 9 10 9 8 10
148 146 146 147 148 149 150 149 148 147 147 146 144 142 142 144 145 147 152 158 163 168 171 171 171 168 160 148 127 99 66 44 71 106 99 74 69 77 80 75 67 58 46 31 22 21 21 23 28 30 25 22 24 25 25 23 22 22 23 21 20 20 19 16 12 9 6 4 3 1 360 360 360 2 3 3 5 9 11 13 13 14 14 14 16
151 150 150 150 150 150 150 150 148 148 148 149 149 149 148 148 150 153 158 161 165 170 173 170 163 156 151 146 138 122 69 13 55 122 124 87 75 82 87 81 70 59 47 36 30 29 27 29 33 31 23 21 24 27 25 23 22 22 24 23 22 21 20 17 13 10 7 4 3 1 0 360 0 3 5 8 9 11 13 15 16 17 17 18 22
154 153 152 152 151 150 150 150 150 150 150 151 151 150 150 152 156 162 168 171 174 175 170 161 154 149 145 144 144 141 89 46 90 117 117 100 88 89 90 82 71 62 52 44 39 36 34 35 35 30 23 20 23 26 26 22 22 23 24 23 22 22 21 18 14 11 7 5 3 2 2 2 3 5 8 12 13 13 13 15 16 17 17 17 21
153 152 152 152 153 152 151 150 150 150 150 152 154 157 161 165 167 170 175 176 172 164 157 152 150 150 148 147 145 136 100 88 107 114 110 103 95 91 89 80 67 60 54 46 39 34 34 38 36 29 24 22 22 25 25 22 21 24 24 21 20 21 22 21 19 15 11 8 6 6 6 7 7 7 9 12 15 16 16 17 18 18 18 20 22
153 154 154 154 154 153 152 152 153 154 156 158 161 162 165 165 159 154 156 158 154 147 142 140 139 141 144 146 145 136 111 100 109 110 105 103 97 91 85 74 58 46 39 34 34 34 33 35 35 29 24 23 21 22 23 21 20 23 25 21 19 20 22 22 22 19 16 13 11 10 10 10 9 8 9 12 15 17 19 21 22 22 23 25 26
156 156 156 155 155 155 156 157 158 158 155 151 149 149 154 157 154 147 143 146 153 153 148 143 140 141 144 147 152 153 136 114 107 105 101 98 94 87 79 66 48 35 26 21 24 30 32 32 31 27 24 23 21 21 22 19 17 20 23 22 20 20 21 20 19 18 17 16 14 12 11 11 9 9 11 12 15 18 22 24 25 26 27 29 29
158 158 156 157 157 157 156 155 155 152 146 141 137 134 136 144 153 152 146 142 151 164 169 167 165 167 168 169 174 172 145 121 108 106 104 100 93 83 73 56 35 24 21 16 14 21 29 30 29 26 23 22 21 22 22 19 16 17 19 20 19 20 20 20 18 18 19 18 17 15 15 13 11 10 11 12 14 18 23 26 28 30 31 31 31
158 157 158 159 159 156 153 151 150 147 144 143 141 136 131 131 139 149 151 150 153 165 179 183 182 183 184 183 176 158 134 117 113 117 117 111 98 84 69 47 22 9 9 12 14 20 29 30 28 26 24 22 22 23 21 19 17 16 16 17 18 19 20 19 19 20 21 21 19 18 18 16 14 13 12 12 14 18 22 26 29 31 33 34 34
157 158 159 160 159 155 153 153 151 148 146 148 149 148 143 137 133 136 144 152 158 165 174 183 183 175 174 175 166 150 134 122 118 128 134 127 109 83 40 14 2 352 357 13 17 20 31 34 29 26 24 22 21 22 21 19 17 15 15 15 16 18 19 18 19 23 24 22 20 19 19 18 17 16 15 14 14 17 21 24 26 30 33 35 37
158 158 160 163 162 157 155 155 153 152 152 153 154 156 154 149 144 141 143 148 153 159 166 175 177 169 165 164 156 144 137 130 123 130 142 140 116 57 13 6 2 354 10 35 27 20 27 35 31 25 23 22 19 18 19 18 14 13 14 14 14 16 17 16 19 24 26 25 22 21 20 19 18 18 18 17 17 17 20 21 23 27 31 34 36
160 159 163 166 164 158 157 158 158 159 160 159 159 159 159 157 154 151 150 153 157 161 164 164 162 156 150 147 143 134 131 134 132 135 147 156 143 22 6 12 19 19 37 63 39 21 15 25 29 24 21 20 17 14 15 15 11 10 11 10 10 13 14 14 17 21 24 25 24 22 21 21 19 18 18 19 19 18 19 21 22 24 27 31 35
162 163 167 169 162 157 157 160 163 165 165 165 164 163 161 161 160 159 159 162 164 166 166 161 153 146 140 136 135 130 126 128 131 136 149 167 175 357 350 1 20 22 30 57 45 21 9 13 23 21 14 13 14 12 11 10 9 9 9 6 6 9 11 11 12 16 20 22 22 22 21 21 21 20 19 20 20 18 18 20 23 24 26 30 35
163 167 172 170 162 159 159 163 168 171 169 168 168 167 165 165 165 166 169 172 172 171 170 166 158 152 149 145 140 137 132 127 127 135 150 167 191 272 319 337 350 357 6 26 24 11 3 1 9 11 5 4 7 8 5 4 5 7 7 4 2 5 8 8 9 11 16 19 20 20 21 21 21 21 20 21 20 19 19 21 24 26 28 32 36
167 172 173 168 164 164 165 168 172 173 171 170 171 172 172 174 177 179 183 187 186 183 180 177 176 178 178 168 159 155 152 150 152 164 176 190 223 265 290 308 315 317 324 335 344 349 352 353 358 359 353 351 355 357 357 357 357 360 3 2 359 360 2 4 5 8 12 16 17 18 20 21 20 20 20 21 21 20 20 22 24 25 27 30 35
170 174 173 168 167 170 172 175 176 176 177 178 180 181 183 187 190 192 196 198 198 196 194 192 193 199 199 185 172 171 177 188 213 236 233 228 237 252 270 295 304 300 294 301 320 325 327 330 338 344 343 342 344 346 348 351 349 351 356 358 354 354 357 358 0 4 8 12 15 15 16 18 18 18 18 20 21 19 18 20 22 23 24 26 29
172 175 173 170 172 174 176 178 180 182 183 184 184 187 191 194 197 201 205 207 206 205 204 203 207 213 213 195 182 185 195 205 220 249 265 258 254 252 249 263 292 293 278 279 300 306 302 300 314 327 330 331 334 337 342 345 342 341 345 349 347 348 351 352 353 358 3 7 9 12 14 15 14 13 14 17 19 18 17 18 20 22 22 23 23
173 175 173 172 175 178 177 177 179 181 180 177 175 178 185 190 195 199 199 198 200 201 201 203 211 223 224 211 196 193 199 207 218 240 257 264 269 263 247 243 262 277 271 278 293 295 285 285 299 308 314 319 324 328 334 337 335 332 334 337 338 339 343 344 344 347 354 1 4 6 10 13 12 9 8 10 13 15 16 16 17 19 21 23 24
174 175 173 174 177 178 176 176 178 178 175 172 171 175 182 189 195 195 192 192 198 202 200 202 214 228 228 214 201 197 204 215 230 251 261 264 272 270 255 250 258 261 259 266 279 278 271 278 292 300 305 311 316 318 323 326 324 321 323 327 327 327 331 334 333 334 342 353 0 3 5 8 11 9 5 3 6 11 13 13 13 15 17 20 23
175 176 174 174 175 174 172 174 175 176 178 179 180 182 185 189 193 197 199 203 206 204 200 206 222 237 228 210 203 204 214 223 237 265 277 275 272 266 259 260 265 261 257 266 277 273 266 271 284 292 296 302 309 312 317 320 319 314 315 318 318 317 319 321 320 320 326 336 348 358 360 359 3 7 2 358 360 5 8 8 8 9 10 13 17
178 180 175 171 172 174 175 174 174 178 186 191 188 186 187 188 191 198 205 211 212 207 202 209 225 238 230 212 207 209 217 227 244 269 282 284 281 269 257 257 262 261 262 273 277 268 259 263 277 284 287 295 304 309 314 318 318 314 311 311 310 310 311 311 309 308 310 317 326 340 349 351 351 354 354 351 352 357 1 2 3 3 4 4 7
179 181 176 171 170 173 177 178 178 183 190 195 196 195 196 197 199 202 207 211 213 208 203 209 223 233 228 215 208 211 222 238 254 269 277 281 281 271 257 257 260 260 263 273 275 266 258 262 271 276 279 287 299 307 312 315 314 311 310 309 307 305 304 304 305 303 301 303 309 317 329 338 340 340 341 342 343 347 351 355 356 356 356 357 359
180 179 175 172 170 169 174 180 183 186 192 199 203 204 201 199 199 202 205 210 216 216 214 218 225 230 230 226 222 227 239 249 256 263 268 270 269 265 261 262 262 259 263 272 273 265 260 264 268 269 270 278 290 301 308 310 310 309 308 307 307 307 305 304 304 302 298 296 299 304 310 319 327 331 332 331 332 335 339 345 348 348 348 349 350
185 181 176 175 175 173 175 181 186 189 194 199 202 203 201 201 203 206 209 215 220 222 221 222 224 226 231 234 235 238 244 249 252 256 260 261 260 260 261 263 263 262 265 268 265 260 259 259 260 261 265 274 283 288 290 294 299 303 305 305 306 308 309 306 303 299 295 293 294 297 300 305 312 320 323 321 320 322 325 330 336 337 336 338 340
189 188 184 182 182 180 180 182 187 192 195 196 198 200 205 211 215 218 222 227 231 232 229 226 226 227 231 234 237 241 245 249 253 256 257 257 257 258 261 264 265 267 267 265 263 262 261 258 257 260 266 273 279 281 282 283 287 293 299 302 302 303 305 304 300 296 294 292 290 291 294 297 301 308 313 314 313 311 312 316 322 322 322 325 331
191 193 193 191 189 188 187 188 191 194 197 198 199 201 207 214 217 219 223 228 232 235 234 230 228 231 236 242 247 250 251 254 256 258 259 260 260 260 262 264 264 263 263 262 262 262 261 260 261 264 267 271 274 276 278 280 284 289 294 297 298 298 298 297 295 295 295 292 289 288 289 291 293 297 302 306 306 305 304 306 309 308 306 310 319
191 194 197 197 197 198 197 196 197 198 199 201 201 202 206 213 218 220 223 225 227 229 230 229 230 233 237 242 247 250 253 256 259 259 261 264 266 264 263 264 265 266 266 265 266 268 268 267 267 268 270 272 274 275 276 277 280 285 291 294 296 296 294 291 291 292 292 291 289 288 286 286 287 290 293 296 298 298 297 297 298 298 297 300 307
192 194 196 197 200 202 201 202 205 206 206 206 206 206 208 213 218 223 226 227 227 229 231 231 232 235 237 241 246 250 251 254 256 256 257 262 268 270 271 273 276 278 276 274 275 276 277 276 275 275 274 274 275 276 278 279 279 281 286 291 293 293 292 290 289 288 287 287 287 286 284 282 283 284 287 288 290 290 290 290 291 289 288 292 297
191 194 195 196 199 202 204 207 211 212 210 209 209 210 212 214 216 221 227 232 236 240 243 242 243 243 243 247 253 255 255 258 261 259 257 260 265 272 281 290 293 292 290 290 289 288 290 292 292 288 284 282 280 280 282 284 284 284 286 287 289 289 288 288 287 287 286 286 284 282 281 280 280 281 284 285 284 284 285 286 286 285 283 284 288